When you browse on this site, cookies collect data to enhance your experience and personalize the content and advertising you see.
Visit our Privacy Policy to learn more. By continuing to use the site, you agree to this use of cookies and data.

Stündliche Wetter Coro

Heute, 9 August, Sonntag

Zeit Temperatur Niederschläge Wind Luftdruck Luftfeuchtigkeit
00:00 +28°C° 0.1 mm 6 m/S 756 mmHg 88%
01:00 +28°C° 0 mm 6 m/S 756 mmHg 88%
02:00 +28°C° 0.1 mm 6 m/S 756 mmHg 89%
03:00 +27°C° 0.1 mm 6 m/S 755 mmHg 89%
04:00 +27°C° 0.1 mm 6 m/S 755 mmHg 90%
05:00 +28°C° 0 mm 6 m/S 756 mmHg 87%
06:00 +28°C° 0 mm 6 m/S 756 mmHg 85%
07:00 +29°C° 0 mm 6 m/S 756 mmHg 82%
08:00 +32°C° 0 mm 6 m/S 757 mmHg 72%
09:00 +34°C° 0 mm 6 m/S 757 mmHg 63%
10:00 +36°C° 0 mm 6 m/S 757 mmHg 53%
11:00 +38°C° 0 mm 7 m/S 756 mmHg 50%
12:00 +39°C° 0 mm 8 m/S 755 mmHg 46%
13:00 +40°C° 0 mm 8 m/S 755 mmHg 43%
14:00 +39°C° 0 mm 9 m/S 754 mmHg 46%
15:00 +38°C° 0 mm 9 m/S 754 mmHg 50%
16:00 +37°C° 0 mm 10 m/S 753 mmHg 54%
17:00 +34°C° 0 mm 9 m/S 754 mmHg 63%
18:00 +32°C° 0 mm 8 m/S 754 mmHg 73%
19:00 +29°C° 0 mm 7 m/S 755 mmHg 82%
20:00 +29°C° 0 mm 7 m/S 755 mmHg 84%
21:00 +28°C° 0 mm 7 m/S 756 mmHg 86%
22:00 +28°C° 0 mm 6 m/S 756 mmHg 88%
23:00 +28°C° 0 mm 6 m/S 756 mmHg 89%

Morgen, 10 August, Montag

Zeit Temperatur Niederschläge Wind Luftdruck Luftfeuchtigkeit
00:00 +28°C° 0 mm 5 m/S 756 mmHg 89%
01:00 +28°C° 0 mm 5 m/S 755 mmHg 89%
02:00 +27°C° 0 mm 5 m/S 755 mmHg 90%
03:00 +27°C° 0 mm 5 m/S 755 mmHg 91%
04:00 +27°C° 0 mm 5 m/S 755 mmHg 92%
05:00 +28°C° 0 mm 5 m/S 755 mmHg 88%
06:00 +28°C° 0 mm 6 m/S 755 mmHg 85%
07:00 +29°C° 0 mm 6 m/S 755 mmHg 81%
08:00 +32°C° 0 mm 6 m/S 756 mmHg 72%
09:00 +34°C° 0 mm 6 m/S 756 mmHg 63%
10:00 +36°C° 0 mm 6 m/S 756 mmHg 53%
11:00 +38°C° 0 mm 7 m/S 755 mmHg 49%
12:00 +39°C° 0 mm 8 m/S 754 mmHg 46%
13:00 +40°C° 0 mm 9 m/S 754 mmHg 42%
14:00 +39°C° 0 mm 9 m/S 753 mmHg 45%
15:00 +38°C° 0 mm 9 m/S 753 mmHg 49%
16:00 +37°C° 0 mm 9 m/S 752 mmHg 53%
17:00 +34°C° 0 mm 8 m/S 752 mmHg 62%
18:00 +32°C° 0 mm 8 m/S 753 mmHg 71%
19:00 +29°C° 0 mm 7 m/S 753 mmHg 81%
20:00 +29°C° 0 mm 6 m/S 754 mmHg 83%
21:00 +28°C° 0 mm 6 m/S 754 mmHg 86%
22:00 +28°C° 0 mm 6 m/S 755 mmHg 89%
23:00 +28°C° 0 mm 6 m/S 755 mmHg 89%

übermorgen, 11 August, Dienstag

Zeit Temperatur Niederschläge Wind Luftdruck Luftfeuchtigkeit
00:00 +27°C° 0 mm 6 m/S 754 mmHg 90%
01:00 +27°C° 0 mm 5 m/S 754 mmHg 90%
02:00 +27°C° 0 mm 5 m/S 754 mmHg 91%
03:00 +27°C° 0 mm 5 m/S 753 mmHg 92%
04:00 +27°C° 0 mm 5 m/S 753 mmHg 92%
05:00 +28°C° 0 mm 5 m/S 753 mmHg 89%
06:00 +28°C° 0 mm 5 m/S 754 mmHg 85%
07:00 +29°C° 0 mm 6 m/S 754 mmHg 81%
08:00 +32°C° 0 mm 6 m/S 754 mmHg 73%
09:00 +33°C° 0 mm 6 m/S 754 mmHg 65%
10:00 +35°C° 0 mm 6 m/S 755 mmHg 57%
11:00 +36°C° 0 mm 7 m/S 754 mmHg 53%
12:00 +38°C° 0 mm 8 m/S 753 mmHg 50%
13:00 +39°C° 0 mm 8 m/S 753 mmHg 46%
14:00 +38°C° 0 mm 9 m/S 752 mmHg 50%
15:00 +37°C° 0 mm 9 m/S 752 mmHg 53%
16:00 +35°C° 0 mm 9 m/S 751 mmHg 57%
17:00 +33°C° 0 mm 8 m/S 752 mmHg 65%
18:00 +31°C° 0 mm 8 m/S 752 mmHg 74%
19:00 +28°C° 0 mm 7 m/S 753 mmHg 82%
20:00 +28°C° 0 mm 7 m/S 753 mmHg 83%
21:00 +28°C° 0 mm 7 m/S 754 mmHg 85%
22:00 +27°C° 0 mm 7 m/S 755 mmHg 87%
23:00 +27°C° 0 mm 6 m/S 754 mmHg 88%

12 August, Mittwoch

Zeit Temperatur Niederschläge Wind Luftdruck Luftfeuchtigkeit
00:00 +27°C° 0 mm 6 m/S 754 mmHg 89%
01:00 +27°C° 0 mm 5 m/S 754 mmHg 91%
02:00 +27°C° 0 mm 5 m/S 753 mmHg 91%
03:00 +27°C° 0 mm 5 m/S 753 mmHg 91%
04:00 +27°C° 0 mm 5 m/S 753 mmHg 90%
05:00 +27°C° 0 mm 5 m/S 754 mmHg 88%
06:00 +28°C° 0 mm 5 m/S 754 mmHg 85%
07:00 +29°C° 0 mm 5 m/S 754 mmHg 82%
08:00 +30°C° 0 mm 6 m/S 754 mmHg 75%
09:00 +33°C° 0 mm 6 m/S 754 mmHg 68%
10:00 +35°C° 0 mm 6 m/S 755 mmHg 61%
11:00 +35°C° 0.1 mm 7 m/S 754 mmHg 58%
12:00 +36°C° 0.1 mm 7 m/S 753 mmHg 55%
13:00 +38°C° 0.1 mm 8 m/S 753 mmHg 52%
14:00 +37°C° 0.1 mm 8 m/S 752 mmHg 54%
15:00 +37°C° 0.1 mm 8 m/S 752 mmHg 56%
16:00 +35°C° 0.1 mm 8 m/S 751 mmHg 58%
17:00 +33°C° 0 mm 8 m/S 752 mmHg 68%
18:00 +32°C° 0 mm 7 m/S 752 mmHg 77%
19:00 +29°C° 0 mm 7 m/S 753 mmHg 87%
20:00 +28°C° 0 mm 6 m/S 753 mmHg 88%
21:00 +28°C° 0 mm 6 m/S 754 mmHg 90%
22:00 +28°C° 0 mm 6 m/S 754 mmHg 91%
23:00 +28°C° 0 mm 6 m/S 754 mmHg 92%

13 August, Donnerstag

Zeit Temperatur Niederschläge Wind Luftdruck Luftfeuchtigkeit
00:00 +28°C° 0 mm 6 m/S 753 mmHg 92%
01:00 +28°C° 0 mm 6 m/S 753 mmHg 92%
02:00 +27°C° 0 mm 6 m/S 753 mmHg 92%
03:00 +27°C° 0 mm 6 m/S 753 mmHg 92%
04:00 +27°C° 0 mm 5 m/S 752 mmHg 92%
05:00 +28°C° 0 mm 6 m/S 753 mmHg 88%
06:00 +29°C° 0 mm 6 m/S 753 mmHg 84%
07:00 +29°C° 0 mm 6 m/S 754 mmHg 80%
08:00 +32°C° 0 mm 6 m/S 754 mmHg 72%
09:00 +34°C° 0 mm 6 m/S 754 mmHg 64%
10:00 +35°C° 0 mm 7 m/S 754 mmHg 56%
11:00 +36°C° 0.1 mm 7 m/S 753 mmHg 55%
12:00 +38°C° 0.1 mm 8 m/S 753 mmHg 53%
13:00 +38°C° 0.1 mm 8 m/S 752 mmHg 51%
14:00 +38°C° 0 mm 8 m/S 752 mmHg 53%
15:00 +37°C° 0 mm 8 m/S 751 mmHg 55%
16:00 +37°C° 0 mm 8 m/S 751 mmHg 57%
17:00 +34°C° 0 mm 8 m/S 751 mmHg 66%
18:00 +32°C° 0 mm 8 m/S 752 mmHg 74%
19:00 +29°C° 0 mm 7 m/S 753 mmHg 83%
20:00 +29°C° 0.1 mm 7 m/S 753 mmHg 85%
21:00 +28°C° 0.1 mm 7 m/S 753 mmHg 87%
22:00 +28°C° 0.1 mm 6 m/S 754 mmHg 89%
23:00 +28°C° 0.1 mm 6 m/S 753 mmHg 89%

14 August, Freitag

Zeit Temperatur Niederschläge Wind Luftdruck Luftfeuchtigkeit
00:00 +28°C° 0.1 mm 6 m/S 753 mmHg 90%
01:00 +27°C° 0.1 mm 6 m/S 752 mmHg 90%
02:00 +27°C° 0.1 mm 6 m/S 752 mmHg 91%
03:00 +27°C° 0.1 mm 6 m/S 752 mmHg 91%
04:00 +27°C° 0.1 mm 6 m/S 752 mmHg 91%
05:00 +28°C° 0.1 mm 6 m/S 753 mmHg 89%
06:00 +28°C° 0.1 mm 6 m/S 753 mmHg 86%
07:00 +29°C° 0.1 mm 6 m/S 754 mmHg 83%
08:00 +30°C° 0.1 mm 6 m/S 754 mmHg 78%
09:00 +32°C° 0.1 mm 6 m/S 754 mmHg 73%
10:00 +34°C° 0.1 mm 6 m/S 754 mmHg 68%
11:00 +35°C° 0 mm 7 m/S 753 mmHg 60%
12:00 +38°C° 0 mm 8 m/S 752 mmHg 52%
13:00 +39°C° 0 mm 8 m/S 752 mmHg 44%
14:00 +38°C° 0 mm 8 m/S 751 mmHg 46%
15:00 +37°C° 0 mm 9 m/S 751 mmHg 48%
16:00 +35°C° 0 mm 9 m/S 751 mmHg 49%
17:00 +33°C° 0 mm 8 m/S 751 mmHg 60%
18:00 +30°C° 0 mm 7 m/S 752 mmHg 70%
19:00 +28°C° 0 mm 6 m/S 752 mmHg 81%
20:00 +27°C° 0 mm 6 m/S 753 mmHg 85%
21:00 +27°C° 0 mm 5 m/S 753 mmHg 88%
22:00 +27°C° 0 mm 5 m/S 754 mmHg 92%
23:00 +27°C° 0.1 mm 4 m/S 753 mmHg 93%
Mehr zeigen